Content
SEND FEEDBACK

Daily
Averages
Monthly
Summary
United States of America

BERKELEY, MISSOURI


Home > North America > United States > Missouri
Elevation: 172 meters     Latitude: 38 45N     Longitude: 090 22W

WEATHER
 
SELECT A DAY
Number of Records: 208,206;   Date Range: 1/1/95 - 12/16/14
 
SHARE

PRINT THIS DATA

[ ← Previous Day ]
WEATHER ALMANAC - 9 FEBRUARY, 2013
[ Next Day → ]
[ °F ]   °C
Weather ElementAverageHighLow
Temperature2.6 °C5.6 °C (2:51 pm)-0.6 °C (1:51 am)
Dewpoint-3.1 °C1.1 °C (11:51 pm)-5 °C (7:51 am)
Humidity67.4 %82 % (11:51 pm)55 % (2:51 pm)
Barometer1024.4 hPa1029.8 hPa (2:51 am)1017.6 hPa (10:51 pm)
Wind Speed20.1 km/h25.9 km/h (2:51 pm)
Wind Gust35.2 km/h (8:51 pm)
Weather ElementAverage
Visibility15.8 km
Wind DirectionSSE (141.9 °)

Weather ElementTotal
Precipitation2.29 mm
Heating Degree Days15.8 (Base 18.3)
Averaged from 26 records on 9 February, 2013
WEATHER CONDITIONS BREAKOUT
WIND DIRECTION BREAKOUT
WEATHER BY HOUR - 9 FEBRUARY, 2013
[ °F ]   °C
Local TimeTemperatureDewpointHumidityBarometerVisibilityWind DirectionWind SpeedGust SpeedPrecipitationEventsConditions
1:51 AM-0.6 °C-4.4 °C76 %1028.8 hPa14.5 kmEast (100°)16.7 km/hOvercast
2:51 AM-0.6 °C-4.4 °C76 %1029.8 hPa16.1 kmSSE (150°)9.3 km/hOvercast
3:51 AM-0.6 °C-4.4 °C76 %1029.5 hPa16.1 kmSSE (150°)11.1 km/hOvercast
4:51 AM-0.6 °C-4.4 °C76 %1028.4 hPa16.1 kmSE (130°)24.1 km/hOvercast
5:51 AM-0.6 °C-4.4 °C76 %1028.1 hPa16.1 kmESE (120°)18.5 km/hOvercast
6:51 AM-0.6 °C-4.4 °C76 %1028.1 hPa16.1 kmSE (130°)20.4 km/hOvercast
7:51 AM-0.6 °C-5 °C72 %1029.1 hPa16.1 kmSouth (180°)18.5 km/hOvercast
8:51 AM0 °C-4.4 °C73 %1028.8 hPa16.1 kmSE (130°)18.5 km/hOvercast
9:35 AM0 °C-4 °C75 %1027.1 hPa16.1 kmESE (110°)22.2 km/hOvercast
9:51 AM0 °C-4.4 °C73 %1028.4 hPa16.1 kmSSE (150°)20.4 km/hOvercast
10:51 AM1.1 °C-3.9 °C70 %1028.1 hPa16.1 kmSE (140°)20.4 km/hOvercast
11:51 AM2.8 °C-3.3 °C65 %1027.4 hPa16.1 kmSSE (150°)22.2 km/hMostly Cloudy
12:07 PM3 °C-4 °C60 %1025.7 hPa16.1 kmSSE (150°)16.7 km/hMostly Cloudy
12:51 PM3.3 °C-3.3 °C62 %1025.1 hPa16.1 kmSSE (150°)22.2 km/hOvercast
1:51 PM5 °C-2.8 °C57 %1024 hPa16.1 kmSSE (150°)20.4 km/hMostly Cloudy
2:51 PM5.6 °C-2.8 °C55 %1022.4 hPa16.1 kmSE (130°)25.9 km/hMostly Cloudy
3:51 PM5.6 °C-2.2 °C58 %1021.7 hPa16.1 kmESE (120°)25.9 km/hMostly Cloudy
4:51 PM5 °C-2.8 °C57 %1021 hPa16.1 kmSE (140°)24.1 km/hMostly Cloudy
5:51 PM5 °C-2.8 °C57 %1020.7 hPa16.1 kmSE (140°)16.7 km/hOvercast
6:51 PM4 °C-2 °C65 %1020 hPa16.1 kmSouth (170°)11.1 km/hOvercast
7:51 PM5 °C-2.2 °C60 %1020.3 hPa16.1 kmSSE (150°)20.4 km/hOvercast
8:51 PM5.6 °C-2.2 °C58 %1019.6 hPa16.1 kmSSE (160°)25.9 km/h35.2 km/hOvercast
9:28 PM5.6 °C-2.2 °C58 %1019.6 hPa16.1 kmSSE (160°)25.9 km/h35.2 km/hRainLight Rain
9:51 PM5 °C-0.6 °C67 %1018.3 hPa16.1 kmSSE (150°)24.1 km/h0 mmRainLight Rain
10:51 PM5 °C0.6 °C73 %1017.6 hPa14.5 kmSE (140°)24.1 km/h33.3 km/h0.51 mmRainLight Rain
11:51 PM3.9 °C1.1 °C82 %1017.9 hPa11.3 kmSE (140°)18.5 km/h1.78 mmRainLight Rain
Hourly data recorded from KSTL, located 0 kilometers away from Berkeley, Missouri







STORIES FROM OUR PARTNERS